METEOR 1-17 DEB

Satellite information

Favourite Embed

Satellite Type and Status

DEBRISIN ORBIT

Key statistics

Satellite METEOR 1-17 DEB at a glance.

Uptime

18806

Days in orbit

Revolutions

≈ 14.2

Per day

Orbit

LEO

Low Earth Orbit

Inclination

81.2

Latest

Satellite identification and parameters

Extended collection of information and parameters for METEOR 1-17 DEB.

Object identification

Identified? True

Debris? True

Object name: METEOR 1-17 DEB

International designator: 1974-025H

Object number (NORAD): 57542

Object ID (CCSDS): 57542

Country: COMMONWEALTH OF INDEPENDENT STATES (CIS)

Current information (Y/N): Y

RCS size: SMALL

Orbital parameters

Period: 101.448 minutes

Inclination: 81.2097 deg

SMA: 7205.36 km

Apoapsis: 835.466 km

Periapsis: 818.985 km

RAAN: 166.6041 deg

Eccentricy: 0.0011436

Argument of periapsis: 330.9947 deg

Mean anomaly: 29.0593 deg

Mean motion: 14.1944703 rev/day

Mean motion (dot): 0.00005738 rev/day2

B* drag term: 0.0027194 1/REarth

Two-line elements (TLE)

Creation date: Oct. 18, 2025, 8:56 a.m.

Reference frame: TEME

Reference center: EARTH

Epoch: Oct. 17, 2025, 10 p.m. UTC

TLE line 0: 0 METEOR 1-17 DEB

TLE line 1: 1 57542U 74025H 25290.91712241 .00005738 00000-0 27194-2 0 9994

TLE line 2: 2 57542 81.2097 166.6041 0011436 330.9947 29.0593 14.19447030123182

Live tracking on map

Real-time ground track for satellite METEOR 1-17 DEB.

In-orbit conjunctions

A list of the most updated potential collisions computed for object METEOR 1-17 DEB.

Target Orbit TCA Probability of collision Miss distance Type
FENGYUN 1C DEB SSO 2025-07-05 18:48:04 0.0001936084 182.0 (m) DEBRIS
CZ-6A DEB SSO 2025-05-12 04:16:35 0.0002175975 75.0 (m) DEBRIS
SL-3 R/B LEO 2025-01-23 22:15:29 0.0001147312 110.0 (m) ROCKET BODY
CZ-6A DEB LEO 2024-11-26 05:42:19 0.0001491223 626.0 (m) DEBRIS
COSMOS 2251 DEB LEO 2024-06-22 03:04:10 0.0002998376 140.0 (m) DEBRIS

Associated space launch

The Meteor-1 series was the first series of Soviet meteorological satellites.

METEOR 1-17 DEB was lifted into orbit during the mission ‘Vostok 8A92M | Meteor-1 17 (22L)’, on board a Vostok 8A92M space rocket.

The launch took place on April 24, 1974, 11:50 a.m. from 43/4 (43R).

For more information about the launch, click the button.

Launch to space Vostok 8A92M | Meteor-1 17 (22L)
Vostok 8A92M | Meteor-1 17 (22L)

Agency: N/A

Status: Launch Successful

Launch date: April 24, 1974, 11:50 a.m. UTC

Rocket: Vostok 8A92M

Launch pad: 43/4 (43R)

Location: Plesetsk Cosmodrome, Russian Federation

...

Latest news about this satellite

There are no fresh news available about this satellite. Check back as we update our databases every day.


Newsletter sign-up

Weekly statistics, charts and insights to help you stay on top of the space industry.